EW4670 Weather Reports


time (UTC)temp
C
wind
direction
speed
KPH
gust
KPH
rain 1hr
cm
rain 24hr
cm
rain mn
cm
humidity
%
barometer
mb
20260504204630 18 0.0 0.0 0.00 0.00 0.00 35 1015.5
20260504203540 18 221 1.6 4.8 0.00 0.00 0.00 34 1015.5
20260504202539 18 0.0 0.0 0.00 0.00 0.00 33 1015.4
20260504201540 19 270 0.0 1.6 0.00 0.00 0.00 32 1015.4
20260504200539 19 270 0.0 1.6 0.00 0.00 0.00 32 1015.4
20260504195538 19 270 1.6 4.8 0.00 0.00 0.00 32 1015.5
20260504194537 20 293 0.0 1.6 0.00 0.00 0.00 32 1015.4
20260504193536 20 270 1.6 4.8 0.00 0.00 0.00 32 1015.5
20260504192606 20 270 0.0 1.6 0.00 0.00 0.00 31 1015.5
20260504191556 20 248 1.6 4.8 0.00 0.00 0.00 31 1015.4
20260504190535 21 227 0.0 4.8 0.00 0.00 0.00 30 1015.4
20260504185540 21 233 1.6 4.8 0.00 0.00 0.00 29 1015.3
20260504184534 21 216 1.6 6.4 0.00 0.00 0.00 29 1015.2
20260504183534 22 234 1.6 4.8 0.00 0.00 0.00 28 1015.2
20260504182533 22 245 0.0 1.6 0.00 0.00 0.00 27 1015.0
20260504181534 22 228 1.6 8.0 0.00 0.00 0.00 26 1015.0
20260504180532 23 241 1.6 4.8 0.00 0.00 0.00 26 1015.0
20260504175532 23 227 1.6 6.4 0.00 0.00 0.00 25 1014.9
20260504174532 23 221 3.2 11.3 0.00 0.00 0.00 24 1014.9
20260504173532 24 221 3.2 8.0 0.00 0.00 0.00 24 1014.9
20260504172631 25 222 3.2 12.9 0.00 0.00 0.00 23 1014.8
20260504171530 25 226 4.8 11.3 0.00 0.00 0.00 22 1014.9
20260504170530 25 227 3.2 12.9 0.00 0.00 0.00 22 1014.9
20260504150525 26 203 9.7 17.7 0.00 0.00 0.00 21 1015.4
20260504140521 26 209 8.0 24.1 0.00 0.00 0.00 20 1015.8
20260504130519 25 227 12.9 25.7 0.00 0.00 0.00 22 1016.6
20260504110543 24 206 4.8 19.3 0.00 0.00 0.00 25 1018.0
20260504100601 23 196 4.8 16.1 0.00 0.00 0.00 26 1018.8
20260504081537 20 203 6.4 16.1 0.00 0.00 0.00 30 1019.8
20260504080536 19 194 11.3 24.1 0.00 0.00 0.00 31 1019.8
20260504050627 11 203 0.0 1.6 0.00 0.00 0.00 60 1019.8
20260504045527 11 0.0 0.0 0.00 0.00 0.00 62 1019.6
20260504044557 11 278 1.6 4.8 0.00 0.00 0.00 62 1019.5
20260504043526 11 315 0.0 1.6 0.00 0.00 0.00 61 1019.5
20260504042626 11 68 0.0 1.6 0.00 0.00 0.00 62 1019.5
20260504041526 10 45 1.6 4.8 0.00 0.00 0.00 64 1019.4
20260504040524 10 23 0.0 1.6 0.00 0.00 0.00 66 1019.5
20260504035624 9 0.0 0.0 0.00 0.00 0.00 69 1019.3
20260504034853 9 338 0.0 1.6 0.00 0.00 0.00 68 1019.3
20260504033554 9 300 0.0 1.6 0.00 0.00 0.00 67 1019.2
20260504032603 9 0.0 0.0 0.00 0.00 0.00 66 1019.2
20260504031633 9 248 0.0 1.6 0.00 0.00 0.00 67 1019.2
20260504030551 9 0.0 0.0 0.00 0.00 0.00 67 1019.1
20260504025521 9 0.0 0.0 0.00 0.00 0.00 67 1019.1
20260504024550 10 0.0 0.0 0.00 0.00 0.00 65 1019.1
20260504023551 10 225 0.0 1.6 0.00 0.00 0.00 64 1019.1
20260504022550 10 0.0 0.0 0.00 0.00 0.00 63 1019.0
20260504021520 10 0.0 0.0 0.00 0.00 0.00 62 1019.0
20260504020609 10 0.0 0.0 0.00 0.00 0.00 62 1019.1
20260504015609 10 0.0 0.0 0.00 0.00 0.00 62 1019.2
20260504014638 10 0.0 0.0 0.00 0.00 0.00 61 1019.1
20260504013548 11 248 0.0 1.6 0.00 0.00 0.00 60 1019.1
20260504012617 11 0.0 0.0 0.00 0.00 0.00 60 1019.2
20260504011547 11 0.0 1.6 0.00 0.00 0.00 60 1019.2
20260504010546 11 0.0 0.0 0.00 0.00 0.00 59 1019.1
20260504005547 11 248 0.0 1.6 0.00 0.00 0.00 59 1019.2
20260504004546 11 0.0 0.0 0.00 0.00 0.00 58 1019.1
20260504003606 11 0.0 0.0 0.00 0.00 0.00 57 1019.1
20260504002544 11 0.0 0.0 0.00 0.00 0.00 56 1019.1
20260504001545 12 225 0.0 1.6 0.00 0.00 0.00 55 1019.1
20260504000544 12 225 0.0 1.6 0.00 0.00 0.00 52 1019.2
20260503235544 13 0.0 0.0 0.00 0.00 0.00 51 1019.1
20260503234543 13 0.0 0.0 0.00 0.00 0.00 50 1019.1
20260503233543 13 0.0 0.0 0.00 0.00 0.00 49 1019.1
20260503232601 13 165 0.0 1.6 0.00 0.00 0.00 48 1019.2
20260503231611 13 270 0.0 1.6 0.00 0.00 0.00 47 1019.2
20260503230540 14 270 1.6 4.8 0.00 0.00 0.00 46 1019.2
20260503225541 14 270 1.6 4.8 0.00 0.00 0.00 46 1019.3
20260503224540 14 248 0.0 1.6 0.00 0.00 0.00 45 1019.4
20260503223540 14 249 1.6 6.4 0.00 0.00 0.00 46 1019.4
20260503222539 14 0.0 0.0 0.00 0.00 0.00 46 1019.4
20260503221614 14 290 0.0 1.6 0.00 0.00 0.00 46 1019.4
20260503220538 14 236 0.0 1.6 0.00 0.00 0.00 46 1019.5
20260503215538 15 225 0.0 1.6 0.00 0.00 0.00 45 1019.5
20260503214537 15 203 0.0 1.6 0.00 0.00 0.00 44 1019.4
20260503213537 15 90 0.0 1.6 0.00 0.00 0.00 45 1019.5
20260503212617 15 315 0.0 1.6 0.00 0.00 0.00 45 1019.4
20260503211537 15 203 0.0 1.6 0.00 0.00 0.00 44 1019.4
20260503210606 15 0.0 0.0 0.00 0.00 0.00 44 1019.3
20260503205555 15 338 0.0 1.6 0.00 0.00 0.00 43 1019.4